Home > Weather > Hollywood > Past weeks

Flag for USA Past Weather in Hollywood, Florida, USA — Yesterday and Last 2 Weeks

Now
84 °F

Passing clouds.


Feels Like: 90 °F
Forecast: 80 / 89 °F
Wind: 9 mph from Southeast

Location: Fort Lauderdale / Hollywood International Airport

Current Time: Jul 30, 2016 at 11:42:32 PM

Latest Report: Jul 30, 2016 at 10:53 PM


Visibility: 10 mi

Pressure: 30.07 "Hg

Humidity: 70%

Dew Point: 73 °F

Location of HollywoodLocation

Past Weather in Hollywood — Graph

°F

Hollywood Temperature Yesterday

Maximum temperature yesterday: 90 °F (at 1:53 PM)
Minimum temperature yesterday: 82 °F (at 6:53 AM)
Average temperature yesterday: 85 °F

High & Low Weather Summary for the Past Weeks

 TemperatureHumidityPressure
High91 °F (Jul 18, 2:53 PM)90% (Jul 27, 1:53 AM)30.18 "Hg (Jul 27, 1:53 AM)
Low77 °F (Jul 23, 4:53 AM)52% (Jul 30, 11:53 AM)29.98 "Hg (Jul 23, 4:53 PM)
Average85 °F72%30.06 "Hg
* Reported Jul 15 9:53 PM — Jul 30 9:53 PM, Hollywood, Weather by CustomWeather, © 2016

Note: Actual official high and low records may vary slightly from our data, if they occured in-between our weather recording intervals... More about our weather records

Advertising

Hollywood Weather History for the Previous 24 Hours

Scroll right to see more
 ConditionsComfort  
Time TempWeatherWind HumidityBarometerVisibility
9:53 PM
Sat, Jul 30
84 °FPassing clouds.9 mph67%30.06 "Hg10 mi
8:53 PM84 °FBroken clouds.8 mph72%30.04 "Hg10 mi
7:53 PM85 °FBroken clouds.17 mph75%30.03 "Hg10 mi
6:53 PM87 °FBroken clouds.17 mph69%30.01 "Hg10 mi
5:53 PM88 °FBroken clouds.14 mph65%30.01 "Hg10 mi
4:53 PM89 °FPartly sunny.18 mph63%29.99 "Hg10 mi
3:53 PM90 °FPartly sunny.17 mph57%30.00 "Hg10 mi
2:53 PM91 °FScattered clouds.15 mph56%30.02 "Hg10 mi
1:53 PM91 °FScattered clouds.14 mph56%30.04 "Hg10 mi
12:53 PM91 °FScattered clouds.9 mph54%30.05 "Hg10 mi
11:53 AM91 °FScattered clouds.9 mph52%30.06 "Hg10 mi
10:53 AM89 °FScattered clouds.3 mph55%30.06 "Hg10 mi
9:53 AM87 °FPassing clouds.No wind59%30.06 "Hg10 mi
8:53 AM86 °FPassing clouds.No wind72%30.05 "Hg10 mi
7:53 AM83 °FScattered clouds.No wind79%30.04 "Hg10 mi
6:53 AM80 °FPassing clouds.No wind81%30.02 "Hg10 mi
5:53 AM80 °FPassing clouds.No wind81%30.00 "Hg10 mi
4:53 AM81 °FPassing clouds.No wind79%30.01 "Hg10 mi
3:53 AM81 °FPassing clouds.3 mph82%30.01 "Hg10 mi
2:53 AM81 °FPassing clouds.No wind79%30.03 "Hg10 mi
1:53 AM81 °FPassing clouds.No wind79%30.03 "Hg10 mi
12:53 AM82 °FPassing clouds.No wind77%30.03 "Hg10 mi
11:53 PM
Fri, Jul 29
82 °FPassing clouds.6 mph77%30.04 "Hg10 mi
Weather by CustomWeather, © 2016

See weather overviewHow to use our weather pages